Regional Weather Roundup
Issued by NWS Nashville, TN

Home | Current Version | Previous Version | Text Only | Print | Product List | Glossary On
Versions: 1 2 3 4 5 6 7 8 9 10 11 12 13 14 15 16 17 18 19 20 21 22 23 24 25 26 27 28 29 30 31 32 33 34 35 36 37 38 39 40 41 42 43 44 45 46 47 48 49 50
057
ASUS44 KOHX 291110
RWROHX
MIDDLE TENNESSEE HOURLY WEATHER ROUNDUP
NATIONAL WEATHER SERVICE NASHVILLE TN
600 AM CDT WED MAR 29 2017

NOTE: "FAIR" INDICATES FEW OR NO CLOUDS BELOW 12,000 FEET WITH
NO SIGNIFICANT WEATHER AND/OR OBSTRUCTIONS TO VISIBILITY.

* THESE REPORTS ARE NOT UNDER NWS QUALITY CONTROL AND MAY NOT
  REPORT WEATHER SUCH AS PRECIPITATION AND FOG.


TNZ005>011-023>034-057-059-062>066-078-080-291200
...NORTHERN MIDDLE TENNESSEE...

CITY           SKY/WX    TMP DP  RH WIND       PRES   REMARKS
CLARKSVILLE    FOG       52  50  93 E8        30.03S VSB 1/2
CROSSVILLE     FOG       48  47  96 NE3       30.06R VSB 1/4
GALLATIN       CLEAR     54  52  94 CALM      30.07R
NASHVILLE      CLEAR     50  49  96 CALM      30.04S
PORTLAND       PTCLDY    52  52 100 NE5       30.05S FOG
SMYRNA         PTCLDY    47  47 100 CALM      30.05S
SPRINGFIELD    PTCLDY    52  52 100 NE5       30.03S FOG
$$
TNZ056-058-060-061-075>077-079-093>097-291200
...SOUTHERN MIDDLE TENNESSEE...

CITY           SKY/WX    TMP DP  RH WIND       PRES   REMARKS
FAYETTEVILLE   CLOUDY    55  52  88 E7        30.00S
SHELBYVILLE    CLEAR     48  48 100 CALM      30.03S
TULLAHOMA      CLEAR     46  45  93 CALM        N/A
WINCHESTER     CLEAR     45  45 100 CALM      30.02S
$$


...KEY TO REMARKS...
VSB - VISIBILITY IN MILES
WCI - WIND CHILL INDEX
HX  - HEAT INDEX





USA.gov is the U.S. government's official web portal to all federal, state and local government web resources and services.